BAW59T LPPT-EGKK

Flight info

Callsign BAW59T
Flight time N/A
Altitude 38000
Route IXIDA DCT RIVRO DCT TOSDI N745 ZMR N873 DELOG DCT ERCOZ DCT BADUR DCT FEJAC DCT JSY DCT REVTU UP88 VASUX
Aircraft A320/M-SDE3FGHIRWY/LB1

Departure

Time 2026-05-05 23:07
Airport Lisbon Humberto Delgado Airport (LPPT)

Arrival

Time N/A
Airport London Gatwick Airport (EGKK)
Time Latitude Longitude Altitude Speed Heading
2026-05-05 23:06 38.94965 -8.96472 8788 ft 286 kts 43°
2026-05-05 23:07 38.96360 -8.94628 9541 ft 290 kts 43°
2026-05-05 23:07 38.97758 -8.92780 10235 ft 295 kts 42°
2026-05-05 23:07 38.99241 -8.90827 10476 ft 317 kts 42°
2026-05-05 23:07 39.00835 -8.88725 10619 ft 339 kts 43°
2026-05-05 23:08 39.02505 -8.86513 10970 ft 351 kts 43°
2026-05-05 23:08 39.04213 -8.84240 11069 ft 353 kts 43°
2026-05-05 23:08 39.05927 -8.81954 11487 ft 357 kts 43°
2026-05-05 23:08 39.07657 -8.79646 12133 ft 360 kts 43°
2026-05-05 23:09 39.09410 -8.77308 12747 ft 365 kts 42°
2026-05-05 23:09 39.11160 -8.74976 13336 ft 369 kts 42°
2026-05-05 23:09 39.12956 -8.72583 13927 ft 374 kts 42°
2026-05-05 23:09 39.14770 -8.70163 14461 ft 378 kts 42°
2026-05-05 23:10 39.16605 -8.67711 14992 ft 381 kts 42°
2026-05-05 23:10 39.18452 -8.65240 15528 ft 385 kts 42°
2026-05-05 23:10 39.20315 -8.62753 16047 ft 388 kts 42°
2026-05-05 23:10 39.22203 -8.60230 16575 ft 392 kts 41°
2026-05-05 23:11 39.24103 -8.57687 17113 ft 395 kts 41°
2026-05-05 23:11 39.26018 -8.55119 17647 ft 399 kts 41°
2026-05-05 23:11 39.27949 -8.52530 18173 ft 403 kts 41°
2026-05-05 23:11 39.29900 -8.49912 18655 ft 406 kts 41°
2026-05-05 23:12 39.31840 -8.47303 19120 ft 410 kts 41°
2026-05-05 23:12 39.33827 -8.44627 19584 ft 414 kts 41°
2026-05-05 23:12 39.35825 -8.41936 20062 ft 417 kts 41°
2026-05-05 23:12 39.37842 -8.39222 20511 ft 421 kts 41°
2026-05-05 23:13 39.39878 -8.36479 20952 ft 425 kts 41°
2026-05-05 23:13 39.41932 -8.33707 21381 ft 428 kts 40°
2026-05-05 23:13 39.43999 -8.30918 21802 ft 432 kts 40°
2026-05-05 23:13 39.46085 -8.28102 22205 ft 435 kts 40°
2026-05-05 23:14 39.48159 -8.25292 22604 ft 439 kts 40°
2026-05-05 23:14 39.50300 -8.22387 23019 ft 442 kts 40°
2026-05-05 23:14 39.52405 -8.19529 23416 ft 446 kts 40°
2026-05-05 23:14 39.54549 -8.16619 23782 ft 449 kts 40°
2026-05-05 23:15 39.56717 -8.13674 24101 ft 453 kts 40°
2026-05-05 23:15 39.58895 -8.10712 24427 ft 456 kts 40°
2026-05-05 23:15 39.61085 -8.07728 24756 ft 459 kts 40°
2026-05-05 23:15 39.63297 -8.04709 25078 ft 463 kts 40°
2026-05-05 23:16 39.65521 -8.01669 25384 ft 466 kts 40°
2026-05-05 23:16 39.67774 -7.98627 25681 ft 469 kts 39°
2026-05-05 23:16 39.70038 -7.95640 25992 ft 471 kts 39°
2026-05-05 23:16 39.72356 -7.92627 26303 ft 473 kts 38°
2026-05-05 23:17 39.74693 -7.89601 26602 ft 476 kts 38°
2026-05-05 23:17 39.77051 -7.86542 26914 ft 479 kts 39°
2026-05-05 23:17 39.79413 -7.83460 27210 ft 483 kts 39°
2026-05-05 23:17 39.81779 -7.80352 27516 ft 485 kts 39°
2026-05-05 23:18 39.84156 -7.77216 27807 ft 489 kts 39°
2026-05-05 23:18 39.86549 -7.74052 28116 ft 491 kts 39°
2026-05-05 23:18 39.88950 -7.70867 28447 ft 493 kts 39°
2026-05-05 23:18 39.91320 -7.67719 28887 ft 493 kts 39°
2026-05-05 23:19 39.93719 -7.64537 29301 ft 493 kts 39°
2026-05-05 23:19 39.96127 -7.61347 29715 ft 494 kts 39°
2026-05-05 23:19 39.98533 -7.58158 30127 ft 494 kts 38°
2026-05-05 23:19 40.00950 -7.54948 30501 ft 494 kts 38°
2026-05-05 23:20 40.03349 -7.51758 30876 ft 494 kts 39°
2026-05-05 23:20 40.05749 -7.48562 31276 ft 493 kts 39°
2026-05-05 23:20 40.08150 -7.45358 31668 ft 492 kts 39°
2026-05-05 23:20 40.10539 -7.42164 32053 ft 492 kts 39°
2026-05-05 23:21 40.12893 -7.39017 32453 ft 491 kts 39°
2026-05-05 23:21 40.15280 -7.35824 32842 ft 490 kts 39°
2026-05-05 23:21 40.17658 -7.32640 33234 ft 490 kts 39°
2026-05-05 23:21 40.20036 -7.29454 33621 ft 489 kts 39°
2026-05-05 23:22 40.22414 -7.26267 34004 ft 489 kts 39°
2026-05-05 23:22 40.24783 -7.23085 34341 ft 487 kts 39°
2026-05-05 23:22 40.27140 -7.19917 34671 ft 486 kts 40°
2026-05-05 23:22 40.29501 -7.16740 34970 ft 485 kts 40°
2026-05-05 23:23 40.34158 -7.10461 35082 ft 483 kts 40°
2026-05-05 23:23 40.38833 -7.04163 35079 ft 481 kts 40°
2026-05-05 23:24 40.43496 -6.97859 35507 ft 480 kts 40°
2026-05-05 23:24 40.45812 -6.94712 35853 ft 478 kts 41°
2026-05-05 23:24 40.48119 -6.91569 36166 ft 477 kts 41°
2026-05-05 23:25 40.50420 -6.88431 36483 ft 476 kts 41°
2026-05-05 23:25 40.52710 -6.85317 36783 ft 474 kts 41°
2026-05-05 23:25 40.54974 -6.82244 37061 ft 473 kts 41°
2026-05-05 23:25 40.57252 -6.79145 37334 ft 472 kts 41°
2026-05-05 23:26 40.59533 -6.76035 37531 ft 472 kts 41°
2026-05-05 23:26 40.61817 -6.72919 37582 ft 475 kts 41°
2026-05-05 23:26 40.66604 -6.66889 37579 ft 477 kts 37°
2026-05-05 23:27 40.71618 -6.61160 37587 ft 476 kts 36°
2026-05-05 23:27 40.76575 -6.55530 37581 ft 470 kts 37°
2026-05-05 23:28 40.81457 -6.49812 37586 ft 468 kts 38°
2026-05-05 23:28 40.86292 -6.44055 37597 ft 469 kts 38°
2026-05-05 23:29 40.91141 -6.38289 37600 ft 468 kts 38°
2026-05-05 23:29 40.95955 -6.32568 37601 ft 468 kts 38°
2026-05-05 23:30 41.00016 -6.27747 37594 ft 468 kts 38°
2026-05-05 23:30 41.05633 -6.21064 37598 ft 468 kts 38°
2026-05-05 23:31 41.10432 -6.15336 37932 ft 461 kts 38°
2026-05-05 23:31 41.12825 -6.12479 38052 ft 461 kts 38°
2026-05-05 23:31 41.15199 -6.09643 38076 ft 460 kts 38°
2026-05-05 23:32 41.19918 -6.03995 38072 ft 459 kts 38°
2026-05-05 23:32 41.24655 -5.98287 38068 ft 459 kts 38°
2026-05-05 23:33 41.29379 -5.92588 38069 ft 459 kts 38°
2026-05-05 23:33 41.34103 -5.86909 38069 ft 458 kts 38°
2026-05-05 23:34 41.38835 -5.81194 38076 ft 459 kts 38°
2026-05-05 23:34 41.43526 -5.75512 38079 ft 459 kts 38°
2026-05-05 23:35 41.48239 -5.69791 38079 ft 459 kts 38°
2026-05-05 23:35 41.53114 -5.64368 38085 ft 452 kts 27°
2026-05-05 23:36 41.58714 -5.60768 38082 ft 446 kts 18°
2026-05-05 23:36 41.64438 -5.57549 38087 ft 446 kts 18°
2026-05-05 23:37 41.70119 -5.54333 38089 ft 446 kts 18°
2026-05-05 23:37 41.75839 -5.51092 38089 ft 446 kts 18°
2026-05-05 23:38 41.81546 -5.47857 38088 ft 446 kts 18°
2026-05-05 23:38 41.87280 -5.44610 38091 ft 447 kts 18°
2026-05-05 23:39 41.92956 -5.41377 38094 ft 447 kts 19°
2026-05-05 23:39 41.98687 -5.38112 38094 ft 447 kts 19°
2026-05-05 23:40 42.04417 -5.34839 38093 ft 447 kts 19°
2026-05-05 23:40 42.10141 -5.31558 38095 ft 447 kts 19°
2026-05-05 23:41 42.15837 -5.28296 38092 ft 448 kts 19°
2026-05-05 23:41 42.21561 -5.25011 38098 ft 448 kts 19°
2026-05-05 23:42 42.27290 -5.21710 38098 ft 448 kts 19°
2026-05-05 23:42 42.33012 -5.18402 38100 ft 447 kts 19°
2026-05-05 23:43 42.38739 -5.15088 38110 ft 447 kts 19°
2026-05-05 23:43 42.44428 -5.11803 38115 ft 447 kts 19°
2026-05-05 23:44 42.50149 -5.08490 38115 ft 447 kts 19°
2026-05-05 23:44 42.55867 -5.05166 38113 ft 447 kts 19°
2026-05-05 23:45 42.61590 -5.01828 38122 ft 447 kts 19°
2026-05-05 23:45 42.67269 -4.98508 38120 ft 448 kts 19°
2026-05-05 23:46 42.72994 -4.95157 38120 ft 448 kts 19°
2026-05-05 23:46 42.78709 -4.91807 38122 ft 448 kts 19°
2026-05-05 23:47 42.84426 -4.88449 38123 ft 448 kts 19°
2026-05-05 23:47 42.90149 -4.85082 38119 ft 448 kts 19°
2026-05-05 23:48 42.95829 -4.81729 38124 ft 448 kts 19°
2026-05-05 23:48 43.01551 -4.78339 38119 ft 448 kts 20°
2026-05-05 23:49 43.07268 -4.74960 38115 ft 448 kts 19°
2026-05-05 23:49 43.12949 -4.71602 38114 ft 448 kts 20°
2026-05-05 23:50 43.18666 -4.68202 38097 ft 448 kts 20°
2026-05-05 23:50 43.24379 -4.64784 38095 ft 448 kts 20°
2026-05-05 23:51 43.30090 -4.61363 38091 ft 448 kts 20°
2026-05-05 23:51 43.34841 -4.58526 38092 ft 447 kts 20°
2026-05-05 23:52 43.41470 -4.54564 38085 ft 447 kts 20°
2026-05-05 23:52 43.47165 -4.51137 38080 ft 447 kts 20°
2026-05-05 23:53 43.51901 -4.48280 38076 ft 447 kts 20°
2026-05-05 23:53 43.57596 -4.44840 38070 ft 447 kts 20°
2026-05-05 23:54 43.63296 -4.41396 38070 ft 447 kts 20°
2026-05-05 23:54 43.69925 -4.37388 38066 ft 447 kts 20°
2026-05-05 23:55 43.74668 -4.34516 38063 ft 448 kts 21°
2026-05-05 23:55 43.80370 -4.31046 38066 ft 448 kts 21°
2026-05-05 23:56 43.86077 -4.27565 38060 ft 448 kts 21°
2026-05-05 23:56 43.91779 -4.24077 38059 ft 448 kts 21°
2026-05-05 23:57 43.97486 -4.20583 38053 ft 448 kts 21°
2026-05-05 23:57 44.03155 -4.17110 38050 ft 448 kts 21°
2026-05-05 23:58 44.08862 -4.13605 38046 ft 448 kts 21°
2026-05-05 23:58 44.14565 -4.10093 38042 ft 448 kts 21°
2026-05-05 23:59 44.20270 -4.06564 38040 ft 448 kts 21°
2026-05-05 23:59 44.25939 -4.03060 38040 ft 448 kts 21°
2026-05-06 00:00 44.31663 -3.99680 38031 ft 446 kts 14°
2026-05-06 00:00 44.37725 -3.98309 38026 ft 440 kts
2026-05-06 00:01 44.43841 -3.97776 38020 ft 440 kts
2026-05-06 00:01 44.49952 -3.97220 38017 ft 440 kts
2026-05-06 00:02 44.56024 -3.96667 38014 ft 440 kts
2026-05-06 00:02 44.62145 -3.96115 38010 ft 441 kts
2026-05-06 00:03 44.68270 -3.95564 38011 ft 441 kts
2026-05-06 00:03 44.74386 -3.95010 38015 ft 441 kts
2026-05-06 00:04 44.80508 -3.94453 38016 ft 441 kts
2026-05-06 00:04 44.86584 -3.93899 38009 ft 441 kts
2026-05-06 00:05 44.95766 -3.93073 38008 ft 441 kts
2026-05-06 00:06 45.01898 -3.92517 38006 ft 441 kts
2026-05-06 00:06 45.07976 -3.91945 38003 ft 441 kts
2026-05-06 00:07 45.14087 -3.91372 38002 ft 440 kts
2026-05-06 00:07 45.20207 -3.90821 37999 ft 440 kts
2026-05-06 00:08 45.26323 -3.90272 37999 ft 440 kts
2026-05-06 00:08 45.32429 -3.89704 37998 ft 440 kts
2026-05-06 00:09 45.38505 -3.89124 37993 ft 440 kts
2026-05-06 00:09 45.44606 -3.88555 37996 ft 440 kts
2026-05-06 00:10 45.50712 -3.87993 37996 ft 440 kts
2026-05-06 00:10 45.56813 -3.87430 37991 ft 440 kts
2026-05-06 00:11 45.62881 -3.86862 37989 ft 440 kts
2026-05-06 00:11 45.68991 -3.86287 37987 ft 440 kts
2026-05-06 00:12 45.75093 -3.85717 37985 ft 440 kts
2026-05-06 00:12 45.81191 -3.85146 37990 ft 439 kts
2026-05-06 00:13 45.87256 -3.84568 37987 ft 439 kts
2026-05-06 00:13 45.93356 -3.83988 37983 ft 439 kts
2026-05-06 00:14 45.99451 -3.83401 37987 ft 439 kts
2026-05-06 00:14 46.05549 -3.82821 37981 ft 439 kts
2026-05-06 00:15 46.11634 -3.82248 37983 ft 439 kts
2026-05-06 00:15 46.17683 -3.81675 37985 ft 438 kts
2026-05-06 00:16 46.23761 -3.81090 37985 ft 438 kts
2026-05-06 00:16 46.29843 -3.80506 37985 ft 438 kts
2026-05-06 00:17 46.35928 -3.79921 37983 ft 438 kts
2026-05-06 00:17 46.42002 -3.79338 37982 ft 437 kts
2026-05-06 00:18 46.48068 -3.78765 37982 ft 437 kts
2026-05-06 00:18 46.54088 -3.78184 37981 ft 437 kts
2026-05-06 00:19 46.60161 -3.77588 37983 ft 437 kts
2026-05-06 00:19 46.66227 -3.76996 37984 ft 437 kts
2026-05-06 00:20 46.72286 -3.76401 37987 ft 437 kts
2026-05-06 00:20 46.78314 -3.75817 37980 ft 437 kts
2026-05-06 00:21 46.84385 -3.75235 37984 ft 437 kts
2026-05-06 00:21 46.90451 -3.74646 37985 ft 437 kts
2026-05-06 00:22 46.96470 -3.74047 37987 ft 437 kts
2026-05-06 00:22 47.02533 -3.73442 37987 ft 437 kts
2026-05-06 00:23 47.08599 -3.72854 37987 ft 437 kts
2026-05-06 00:23 47.14668 -3.72260 37985 ft 437 kts
2026-05-06 00:24 47.20730 -3.71656 37987 ft 437 kts
2026-05-06 00:24 47.26764 -3.71052 37983 ft 437 kts
2026-05-06 00:25 47.32835 -3.70450 37986 ft 437 kts
2026-05-06 00:25 47.38913 -3.69845 37985 ft 437 kts
2026-05-06 00:26 47.44985 -3.69231 37987 ft 438 kts
2026-05-06 00:26 47.51020 -3.68621 37985 ft 438 kts
2026-05-06 00:27 47.57101 -3.68010 37986 ft 438 kts
2026-05-06 00:27 47.63185 -3.67402 37988 ft 438 kts
2026-05-06 00:28 47.69268 -3.66795 37988 ft 439 kts
2026-05-06 00:28 47.75329 -3.66173 37988 ft 439 kts
2026-05-06 00:29 47.81432 -3.65546 37987 ft 440 kts
2026-05-06 00:29 47.87543 -3.64939 37984 ft 440 kts
2026-05-06 00:30 47.93661 -3.64330 37990 ft 441 kts